| time (UTC) | temp F | wind direction | speed knots | gust knots | rain 1hr in | rain 24hr in | rain mn in | humidity % | barometer mb |
| 20260506165036 | 53 | 272 | 3.5 | 5.2 | 0.00 | 0.00 | 0.00 | 48 | 1012.9 |
| 20260506164533 | 53 | 259 | 1.7 | 2.6 | 0.00 | 0.00 | 0.00 | 50 | 1012.9 |
| 20260506164030 | 53 | 89 | 4.3 | 6.1 | 0.00 | 0.00 | 0.00 | 49 | 1012.9 |
| 20260506163526 | 53 | 207 | 1.7 | 2.6 | 0.00 | 0.00 | 0.00 | 49 | 1012.9 |
| 20260506163022 | 53 | 186 | 1.7 | 1.7 | 0.00 | 0.00 | 0.00 | 48 | 1012.6 |
| 20260506162518 | 53 | 266 | 3.5 | 3.5 | 0.00 | 0.00 | 0.00 | 47 | 1012.9 |
| 20260506162015 | 54 | 190 | 0.9 | 1.7 | 0.00 | 0.00 | 0.00 | 45 | 1012.9 |
| 20260506161513 | 55 | 242 | 2.6 | 5.2 | 0.00 | 0.00 | 0.00 | 46 | 1012.9 |
| 20260506161009 | 55 | 182 | 1.7 | 1.7 | 0.00 | 0.00 | 0.00 | 48 | 1012.6 |
| 20260506160507 | 54 | 299 | 0.9 | 1.7 | 0.00 | 0.00 | 0.00 | 47 | 1012.9 |
| 20260506160004 | 54 | 223 | 3.5 | 5.2 | 0.00 | 0.00 | 0.00 | 48 | 1012.6 |
| 20260506155502 | 54 | 234 | 1.7 | 1.7 | 0.00 | 0.00 | 0.00 | 46 | 1012.6 |
| 20260506153634 | 54 | 242 | 3.5 | 6.1 | 0.00 | 0.00 | 0.00 | 48 | 1012.6 |
| 20260506153131 | 54 | 295 | 3.5 | 3.5 | 0.00 | 0.00 | 0.00 | 50 | 1012.6 |
| 20260506152628 | 54 | 185 | 0.9 | 2.6 | 0.00 | 0.00 | 0.00 | 51 | 1012.6 |
| 20260506152126 | 54 | 243 | 1.7 | 2.6 | 0.00 | 0.00 | 0.00 | 53 | 1012.3 |
| 20260506151624 | 54 | 356 | 4.3 | 5.2 | 0.00 | 0.00 | 0.00 | 53 | 1012.6 |
| 20260506151121 | 53 | 260 | 1.7 | 2.6 | 0.00 | 0.00 | 0.00 | 57 | 1012.3 |
| 20260506150618 | 54 | 280 | 3.5 | 5.2 | 0.00 | 0.00 | 0.00 | 57 | 1012.3 |
| 20260506150115 | 55 | 232 | 2.6 | 3.5 | 0.00 | 0.00 | 0.00 | 57 | 1012.3 |
| 20260506145612 | 54 | 112 | 1.7 | 1.7 | 0.00 | 0.00 | 0.00 | 58 | 1012.3 |
| 20260506145108 | 55 | 219 | 1.7 | 1.7 | 0.00 | 0.00 | 0.00 | 54 | 1012.3 |
| 20260506144606 | 55 | 293 | 2.6 | 3.5 | 0.00 | 0.00 | 0.00 | 54 | 1011.9 |
| 20260506144102 | 54 | 200 | 1.7 | 1.7 | 0.00 | 0.00 | 0.00 | 53 | 1012.3 |
| 20260506143600 | 54 | 183 | 0.0 | 0.9 | 0.00 | 0.00 | 0.00 | 54 | 1012.3 |
| 20260506143058 | 55 | 233 | 0.9 | 1.7 | 0.00 | 0.00 | 0.00 | 54 | 1012.3 |
| 20260506142556 | 54 | 203 | 0.9 | 1.7 | 0.00 | 0.00 | 0.00 | 57 | 1011.9 |
| 20260506142054 | 53 | 243 | 0.9 | 1.7 | 0.00 | 0.00 | 0.00 | 56 | 1011.9 |
| 20260506141551 | 53 | 149 | 0.0 | 0.9 | 0.00 | 0.00 | 0.00 | 58 | 1011.9 |
| 20260506141050 | 53 | 258 | 0.9 | 1.7 | 0.00 | 0.00 | 0.00 | 57 | 1011.9 |
| 20260506140547 | 53 | 234 | 1.7 | 1.7 | 0.00 | 0.00 | 0.00 | 59 | 1011.9 |
| 20260506140044 | 53 | 187 | 0.9 | 0.9 | 0.00 | 0.00 | 0.00 | 59 | 1011.9 |
| 20260506135541 | 54 | 61 | 0.9 | 1.7 | 0.00 | 0.00 | 0.00 | 60 | 1011.9 |
| 20260506135037 | 53 | 176 | 0.9 | 0.9 | 0.00 | 0.00 | 0.00 | 62 | 1011.6 |
| 20260506134533 | 53 | 80 | 1.7 | 1.7 | 0.00 | 0.00 | 0.00 | 60 | 1011.9 |
| 20260506134029 | 52 | 213 | 1.7 | 2.6 | 0.00 | 0.00 | 0.00 | 61 | 1011.9 |
| 20260506133527 | 52 | 211 | 1.7 | 2.6 | 0.00 | 0.00 | 0.00 | 62 | 1011.9 |
| 20260506133023 | 51 | 192 | 0.9 | 0.9 | 0.00 | 0.00 | 0.00 | 65 | 1011.6 |
| 20260506132521 | 52 | 194 | 0.9 | 0.9 | 0.00 | 0.00 | 0.00 | 64 | 1011.6 |
| 20260506132018 | 51 | 178 | 0.9 | 0.9 | 0.00 | 0.00 | 0.00 | 68 | 1011.6 |
| 20260506131515 | 51 | 166 | 0.0 | 0.0 | 0.00 | 0.00 | 0.00 | 68 | 1011.6 |
| 20260506131011 | 51 | 177 | 0.0 | 0.0 | 0.00 | 0.00 | 0.00 | 69 | 1011.2 |
| 20260506130508 | 51 | 146 | 0.0 | 0.0 | 0.00 | 0.00 | 0.00 | 70 | 1011.2 |
| 20260506130006 | 51 | 164 | 0.0 | 0.9 | 0.00 | 0.00 | 0.00 | 69 | 1011.2 |
| 20260506125504 | 51 | 168 | 0.0 | 0.0 | 0.00 | 0.00 | 0.00 | 70 | 1011.2 |
| 20260506125001 | 50 | 184 | 0.9 | 0.9 | 0.00 | 0.00 | 0.00 | 70 | 1011.2 |
| 20260506124459 | 50 | 163 | 0.0 | 0.0 | 0.00 | 0.00 | 0.00 | 70 | 1011.2 |
| 20260506123957 | 50 | 126 | 0.9 | 0.9 | 0.00 | 0.00 | 0.00 | 71 | 1011.2 |
| 20260506123454 | 50 | 219 | 1.7 | 1.7 | 0.00 | 0.00 | 0.00 | 71 | 1011.2 |
| 20260506122952 | 49 | 190 | 0.9 | 0.9 | 0.00 | 0.00 | 0.00 | 71 | 1010.9 |
| 20260506122449 | 48 | 163 | 0.0 | 0.9 | 0.00 | 0.00 | 0.00 | 72 | 1010.5 |
| 20260506121947 | 48 | 176 | 0.0 | 0.9 | 0.00 | 0.00 | 0.00 | 73 | 1010.9 |
| 20260506121444 | 48 | 158 | 0.0 | 0.0 | 0.00 | 0.00 | 0.00 | 73 | 1010.9 |
| 20260506120940 | 48 | 180 | 0.0 | 0.0 | 0.00 | 0.00 | 0.00 | 72 | 1010.9 |
| 20260506120438 | 48 | 79 | 0.9 | 1.7 | 0.00 | 0.00 | 0.00 | 71 | 1010.9 |
| 20260506115935 | 48 | 176 | 0.0 | 0.0 | 0.00 | 0.00 | 0.00 | 72 | 1010.5 |
| 20260506115433 | 48 | 155 | 0.0 | 0.0 | 0.00 | 0.00 | 0.00 | 71 | 1010.9 |
| 20260506114931 | 48 | 183 | 0.0 | 0.9 | 0.00 | 0.00 | 0.00 | 71 | 1010.9 |
| 20260506114428 | 48 | 174 | 0.0 | 0.0 | 0.00 | 0.00 | 0.00 | 71 | 1010.5 |
| 20260506113927 | 48 | 180 | 0.0 | 0.0 | 0.00 | 0.00 | 0.00 | 71 | 1010.1 |
| 20260506113424 | 48 | 181 | 0.0 | 0.0 | 0.00 | 0.00 | 0.00 | 72 | 1010.5 |
| 20260506112920 | 47 | 182 | 0.0 | 0.0 | 0.00 | 0.00 | 0.00 | 71 | 1010.5 |
| 20260506112418 | 47 | 185 | 0.0 | 0.0 | 0.00 | 0.00 | 0.00 | 71 | 1010.5 |
| 20260506111916 | 47 | 185 | 0.0 | 0.0 | 0.00 | 0.00 | 0.00 | 70 | 1010.5 |
| 20260506111414 | 47 | 172 | 0.0 | 0.9 | 0.00 | 0.00 | 0.00 | 70 | 1010.5 |
| 20260506110910 | 47 | 167 | 0.0 | 0.0 | 0.00 | 0.00 | 0.00 | 70 | 1010.1 |
| 20260506110408 | 47 | 174 | 0.0 | 0.0 | 0.00 | 0.00 | 0.00 | 70 | 1010.1 |
| 20260506105905 | 47 | 176 | 0.0 | 0.0 | 0.00 | 0.00 | 0.00 | 69 | 1010.1 |
| 20260506105401 | 48 | 177 | 0.0 | 0.0 | 0.00 | 0.00 | 0.00 | 69 | 1009.8 |
| 20260506104858 | 48 | 167 | 0.0 | 0.0 | 0.00 | 0.00 | 0.00 | 68 | 1010.1 |
| 20260506104356 | 48 | 184 | 0.0 | 0.0 | 0.00 | 0.00 | 0.00 | 68 | 1009.8 |
| 20260506103854 | 48 | 186 | 0.0 | 0.9 | 0.00 | 0.00 | 0.00 | 67 | 1009.8 |
| 20260506103351 | 48 | 189 | 0.0 | 0.9 | 0.00 | 0.00 | 0.00 | 67 | 1009.4 |
| 20260506102848 | 48 | 189 | 0.0 | 0.0 | 0.00 | 0.00 | 0.00 | 67 | 1009.4 |
| 20260506102346 | 48 | 188 | 0.0 | 0.9 | 0.00 | 0.00 | 0.00 | 66 | 1009.4 |
| 20260506101843 | 48 | 188 | 0.0 | 0.0 | 0.00 | 0.00 | 0.00 | 66 | 1009.4 |
| 20260506101339 | 48 | 188 | 0.0 | 0.0 | 0.00 | 0.00 | 0.00 | 66 | 1009.4 |
| 20260506100837 | 48 | 188 | 0.0 | 0.0 | 0.00 | 0.00 | 0.00 | 66 | 1009.4 |
| 20260506100335 | 48 | 189 | 0.0 | 0.0 | 0.00 | 0.00 | 0.00 | 65 | 1009.4 |
| 20260506095833 | 48 | 185 | 0.0 | 0.0 | 0.00 | 0.00 | 0.00 | 65 | 1009.4 |
| 20260506095330 | 49 | 185 | 0.0 | 0.0 | 0.00 | 0.00 | 0.00 | 65 | 1009.4 |
| 20260506094827 | 48 | 179 | 0.0 | 0.0 | 0.00 | 0.00 | 0.00 | 64 | 1009.4 |
| 20260506094326 | 49 | 181 | 0.0 | 0.0 | 0.00 | 0.00 | 0.00 | 65 | 1009.1 |
| 20260506093823 | 48 | 159 | 0.0 | 0.9 | 0.00 | 0.00 | 0.00 | 63 | 1009.1 |
| 20260506093320 | 48 | 183 | 0.0 | 0.0 | 0.00 | 0.00 | 0.00 | 64 | 1008.8 |
| 20260506092818 | 48 | 183 | 0.0 | 0.0 | 0.00 | 0.00 | 0.00 | 64 | 1009.1 |
| 20260506092315 | 49 | 184 | 0.0 | 0.0 | 0.00 | 0.00 | 0.00 | 64 | 1009.1 |
| 20260506091812 | 49 | 184 | 0.0 | 0.0 | 0.00 | 0.00 | 0.00 | 63 | 1009.4 |
| 20260506091310 | 49 | 192 | 0.0 | 0.0 | 0.00 | 0.00 | 0.00 | 63 | 1009.1 |
| 20260506090808 | 49 | 171 | 0.0 | 0.0 | 0.00 | 0.00 | 0.00 | 63 | 1009.1 |
| 20260506090304 | 49 | 168 | 0.0 | 0.0 | 0.00 | 0.00 | 0.00 | 62 | 1008.8 |
| 20260506085801 | 49 | 162 | 0.0 | 0.0 | 0.00 | 0.00 | 0.00 | 63 | 1008.8 |
| 20260506085257 | 49 | 185 | 0.0 | 0.0 | 0.00 | 0.00 | 0.00 | 62 | 1009.1 |
| 20260506084754 | 49 | 168 | 0.0 | 0.0 | 0.00 | 0.00 | 0.00 | 61 | 1008.8 |
| 20260506084250 | 49 | 161 | 0.0 | 0.0 | 0.00 | 0.00 | 0.00 | 62 | 1008.8 |
| 20260506083747 | 49 | 166 | 0.0 | 0.0 | 0.00 | 0.00 | 0.00 | 61 | 1009.1 |
| 20260506083245 | 49 | 182 | 0.9 | 0.9 | 0.00 | 0.00 | 0.00 | 61 | 1008.8 |
| 20260506082742 | 49 | 173 | 0.0 | 0.0 | 0.00 | 0.00 | 0.00 | 61 | 1008.8 |
| 20260506082237 | 49 | 179 | 0.0 | 0.0 | 0.00 | 0.00 | 0.00 | 62 | 1008.8 |
| 20260506081736 | 49 | 155 | 0.0 | 0.0 | 0.00 | 0.00 | 0.00 | 61 | 1008.8 |
| 20260506081233 | 49 | 179 | 0.0 | 0.0 | 0.00 | 0.00 | 0.00 | 60 | 1008.8 |
| 20260506080731 | 49 | 164 | 0.0 | 0.0 | 0.00 | 0.00 | 0.00 | 61 | 1008.8 |
| 20260506080227 | 49 | 168 | 0.0 | 0.0 | 0.00 | 0.00 | 0.00 | 63 | 1008.8 |
| 20260506073211 | 50 | 177 | 0.9 | 0.9 | 0.00 | 0.00 | 0.00 | 63 | 1008.8 |
| 20260506072708 | 50 | 184 | 0.0 | 0.0 | 0.00 | 0.00 | 0.00 | 64 | 1008.8 |
| 20260506072206 | 50 | 185 | 0.0 | 0.0 | 0.00 | 0.00 | 0.00 | 63 | 1008.8 |
| 20260506071703 | 50 | 180 | 0.0 | 0.0 | 0.00 | 0.00 | 0.00 | 64 | 1008.4 |
| 20260506071201 | 50 | 198 | 0.9 | 0.9 | 0.00 | 0.00 | 0.00 | 62 | 1008.8 |
| 20260506070657 | 50 | 204 | 0.9 | 0.9 | 0.00 | 0.00 | 0.00 | 63 | 1008.8 |
| 20260506070154 | 50 | 196 | 0.0 | 0.0 | 0.00 | 0.00 | 0.00 | 64 | 1009.1 |
| 20260506062131 | 50 | 196 | 0.0 | 0.0 | 0.00 | 0.00 | 0.00 | 64 | 1009.1 |
| 20260506061627 | 50 | 196 | 0.0 | 0.0 | 0.00 | 0.00 | 0.00 | 63 | 1009.1 |
| 20260506061125 | 50 | 197 | 0.0 | 0.0 | 0.00 | 0.00 | 0.00 | 64 | 1008.8 |
| 20260506060623 | 50 | 201 | 0.0 | 0.9 | 0.00 | 0.00 | 0.00 | 63 | 1009.1 |
| 20260506060120 | 50 | 195 | 0.0 | 0.0 | 0.00 | 0.00 | 0.00 | 64 | 1009.4 |
| 20260506051052 | 50 | 195 | 0.0 | 0.0 | 0.00 | 0.00 | 0.00 | 61 | 1009.1 |
| 20260506050550 | 50 | 195 | 0.0 | 0.0 | 0.00 | 0.00 | 0.00 | 61 | 1009.1 |
| 20260506045040 | 51 | 195 | 0.0 | 0.0 | 0.00 | 0.00 | 0.00 | 61 | 1009.1 |
| 20260506044538 | 51 | 195 | 0.0 | 0.0 | 0.00 | 0.00 | 0.00 | 60 | 1009.1 |
| 20260506044035 | 51 | 195 | 0.0 | 0.0 | 0.00 | 0.00 | 0.00 | 60 | 1008.8 |
| 20260506043532 | 51 | 195 | 0.0 | 0.0 | 0.00 | 0.00 | 0.00 | 59 | 1009.1 |
| 20260506043030 | 51 | 195 | 0.0 | 0.0 | 0.00 | 0.00 | 0.00 | 59 | 1009.1 |
| 20260506042529 | 51 | 194 | 0.0 | 0.0 | 0.00 | 0.00 | 0.00 | 59 | 1009.1 |
| 20260506042027 | 51 | 194 | 0.0 | 0.0 | 0.00 | 0.00 | 0.00 | 59 | 1009.1 |
| 20260506041525 | 51 | 194 | 0.0 | 0.0 | 0.00 | 0.00 | 0.00 | 59 | 1009.1 |
| 20260506041021 | 51 | 194 | 0.0 | 0.0 | 0.00 | 0.00 | 0.00 | 59 | 1008.8 |
| 20260506040519 | 51 | 194 | 0.0 | 0.0 | 0.00 | 0.00 | 0.00 | 58 | 1008.4 |
| 20260506040015 | 51 | 194 | 0.0 | 0.0 | 0.00 | 0.15 | 0.15 | 60 | 1008.8 |
| 20260506035512 | 51 | 194 | 0.0 | 0.0 | 0.00 | 0.15 | 0.15 | 60 | 1008.8 |
| 20260506035009 | 51 | 194 | 0.0 | 0.0 | 0.00 | 0.15 | 0.15 | 60 | 1008.8 |
| 20260506034507 | 51 | 194 | 0.0 | 0.0 | 0.00 | 0.15 | 0.15 | 60 | 1009.1 |
| 20260506034003 | 51 | 194 | 0.0 | 0.0 | 0.00 | 0.15 | 0.15 | 59 | 1008.8 |
| 20260506033501 | 51 | 194 | 0.0 | 0.0 | 0.00 | 0.15 | 0.15 | 58 | 1008.8 |
| 20260506032957 | 51 | 194 | 0.0 | 0.0 | 0.00 | 0.15 | 0.15 | 59 | 1008.8 |
| 20260506032455 | 52 | 194 | 0.0 | 0.0 | 0.00 | 0.15 | 0.15 | 59 | 1009.1 |
| 20260506031951 | 52 | 194 | 0.0 | 0.0 | 0.00 | 0.15 | 0.15 | 58 | 1009.1 |
| 20260506031449 | 52 | 194 | 0.0 | 0.0 | 0.00 | 0.15 | 0.15 | 56 | 1009.1 |
| 20260506030946 | 52 | 194 | 0.0 | 0.0 | 0.00 | 0.15 | 0.15 | 57 | 1009.1 |
| 20260506030444 | 52 | 194 | 0.0 | 0.0 | 0.00 | 0.15 | 0.15 | 56 | 1009.1 |
| 20260506025940 | 52 | 194 | 0.0 | 0.0 | 0.00 | 0.15 | 0.15 | 54 | 1008.8 |
| 20260506025437 | 52 | 194 | 0.0 | 0.0 | 0.00 | 0.15 | 0.15 | 55 | 1009.1 |
| 20260506024934 | 52 | 194 | 0.0 | 0.0 | 0.00 | 0.15 | 0.15 | 52 | 1008.8 |
| 20260506024431 | 52 | 194 | 0.0 | 0.0 | 0.00 | 0.15 | 0.15 | 52 | 1009.1 |
| 20260506023926 | 52 | 195 | 0.9 | 0.9 | 0.00 | 0.15 | 0.15 | 52 | 1009.1 |
| 20260506023424 | 53 | 195 | 0.9 | 0.9 | 0.00 | 0.15 | 0.15 | 52 | 1009.1 |
| 20260506022920 | 53 | 193 | 0.0 | 0.0 | 0.00 | 0.15 | 0.15 | 51 | 1009.1 |
| 20260506022418 | 53 | 190 | 0.0 | 0.0 | 0.00 | 0.15 | 0.15 | 52 | 1009.1 |
| 20260506021916 | 53 | 191 | 0.0 | 0.0 | 0.00 | 0.15 | 0.15 | 51 | 1009.1 |
| 20260506021413 | 53 | 195 | 0.9 | 0.9 | 0.00 | 0.15 | 0.15 | 51 | 1008.8 |
| 20260506020910 | 53 | 195 | 0.0 | 0.9 | 0.00 | 0.15 | 0.15 | 51 | 1009.1 |
| 20260506020408 | 53 | 203 | 0.9 | 0.9 | 0.00 | 0.15 | 0.15 | 50 | 1009.1 |
| 20260506015904 | 53 | 188 | 0.0 | 0.0 | 0.00 | 0.15 | 0.15 | 49 | 1008.8 |
| 20260506015402 | 53 | 191 | 0.0 | 0.9 | 0.00 | 0.15 | 0.15 | 49 | 1008.8 |
| 20260506014859 | 53 | 198 | 0.9 | 0.9 | 0.00 | 0.15 | 0.15 | 50 | 1008.8 |
| 20260506014355 | 53 | 203 | 0.9 | 0.9 | 0.00 | 0.15 | 0.15 | 50 | 1008.4 |
| 20260506013852 | 53 | 203 | 0.9 | 0.9 | 0.00 | 0.15 | 0.15 | 53 | 1008.8 |
| 20260506013350 | 53 | 186 | 0.0 | 0.9 | 0.00 | 0.15 | 0.15 | 53 | 1008.4 |
| 20260506012846 | 53 | 183 | 0.0 | 0.0 | 0.00 | 0.15 | 0.15 | 53 | 1008.1 |
| 20260506012343 | 53 | 177 | 0.0 | 0.9 | 0.00 | 0.15 | 0.15 | 53 | 1008.1 |
| 20260506011840 | 53 | 164 | 0.9 | 1.7 | 0.00 | 0.15 | 0.15 | 53 | 1008.4 |
| 20260506011337 | 54 | 189 | 0.0 | 0.0 | 0.00 | 0.15 | 0.15 | 55 | 1008.4 |
| 20260506010834 | 54 | 191 | 0.9 | 0.9 | 0.00 | 0.15 | 0.15 | 54 | 1008.4 |
| 20260506010332 | 54 | 203 | 0.9 | 0.9 | 0.00 | 0.15 | 0.15 | 53 | 1008.1 |
| 20260506005829 | 54 | 202 | 0.9 | 0.9 | 0.00 | 0.15 | 0.15 | 54 | 1008.4 |
| 20260506005326 | 54 | 196 | 0.9 | 0.9 | 0.00 | 0.15 | 0.15 | 54 | 1008.4 |
| 20260506004822 | 54 | 195 | 0.0 | 0.9 | 0.00 | 0.15 | 0.15 | 54 | 1008.4 |
| 20260506004319 | 54 | 202 | 0.9 | 0.9 | 0.00 | 0.15 | 0.15 | 55 | 1008.4 |
| 20260506003815 | 54 | 203 | 0.9 | 0.9 | 0.00 | 0.15 | 0.15 | 54 | 1008.1 |
| 20260506003312 | 54 | 191 | 0.9 | 0.9 | 0.00 | 0.15 | 0.15 | 57 | 1008.4 |
| 20260506002808 | 54 | 187 | 0.0 | 0.0 | 0.00 | 0.15 | 0.15 | 56 | 1008.1 |
| 20260506002306 | 54 | 195 | 0.9 | 0.9 | 0.00 | 0.15 | 0.15 | 55 | 1008.4 |
| 20260506001800 | 55 | 190 | 0.0 | 0.0 | 0.00 | 0.15 | 0.15 | 56 | 1008.4 |
| 20260506001258 | 55 | 199 | 0.0 | 0.0 | 0.00 | 0.15 | 0.15 | 55 | 1008.1 |
| 20260506000754 | 55 | 188 | 0.0 | 0.0 | 0.00 | 0.15 | 0.15 | 55 | 1008.1 |
| 20260506000254 | 55 | 196 | 0.9 | 0.9 | 0.00 | 0.15 | 0.15 | 56 | 1008.1 |
| 20260505235749 | 55 | 192 | 0.9 | 0.9 | 0.00 | 0.15 | 0.15 | 56 | 1008.1 |
| 20260505235247 | 55 | 198 | 0.0 | 0.9 | 0.00 | 0.15 | 0.15 | 56 | 1007.7 |
| 20260505234743 | 55 | 192 | 0.0 | 0.0 | 0.00 | 0.15 | 0.15 | 55 | 1008.1 |
| 20260505234241 | 55 | 188 | 0.0 | 0.9 | 0.00 | 0.15 | 0.15 | 57 | 1007.7 |
| 20260505233737 | 55 | 189 | 0.0 | 0.0 | 0.00 | 0.15 | 0.15 | 57 | 1007.7 |
| 20260505233236 | 55 | 188 | 0.0 | 0.0 | 0.00 | 0.15 | 0.15 | 56 | 1007.7 |
| 20260505232732 | 55 | 203 | 0.9 | 0.9 | 0.00 | 0.15 | 0.15 | 54 | 1007.7 |
| 20260505232230 | 55 | 205 | 0.9 | 0.9 | 0.00 | 0.15 | 0.15 | 54 | 1007.7 |
| 20260505231726 | 55 | 234 | 1.7 | 1.7 | 0.00 | 0.15 | 0.15 | 53 | 1007.4 |
| 20260505231225 | 55 | 214 | 0.9 | 1.7 | 0.00 | 0.15 | 0.15 | 52 | 1007.7 |
| 20260505230723 | 56 | 207 | 0.9 | 1.7 | 0.00 | 0.15 | 0.15 | 53 | 1007.4 |
| 20260505230219 | 56 | 209 | 1.7 | 1.7 | 0.00 | 0.15 | 0.15 | 54 | 1007.4 |
| 20260505225716 | 56 | 170 | 0.0 | 0.0 | 0.00 | 0.15 | 0.15 | 54 | 1007.7 |
| 20260505225213 | 56 | 185 | 0.0 | 0.9 | 0.00 | 0.15 | 0.15 | 55 | 1007.7 |
| 20260505224708 | 56 | 161 | 0.9 | 1.7 | 0.00 | 0.15 | 0.15 | 56 | 1007.7 |
| 20260505224206 | 56 | 180 | 0.9 | 1.7 | 0.00 | 0.15 | 0.15 | 57 | 1007.7 |
| 20260505223704 | 56 | 221 | 0.9 | 1.7 | 0.00 | 0.15 | 0.15 | 58 | 1007.7 |
| 20260505223200 | 56 | 224 | 1.7 | 1.7 | 0.00 | 0.15 | 0.15 | 59 | 1007.7 |
| 20260505222656 | 56 | 214 | 1.7 | 2.6 | 0.00 | 0.15 | 0.15 | 59 | 1007.7 |
| 20260505222152 | 56 | 261 | 3.5 | 3.5 | 0.00 | 0.15 | 0.15 | 61 | 1007.7 |
| 20260505221650 | 56 | 191 | 0.0 | 0.9 | 0.00 | 0.15 | 0.15 | 63 | 1007.7 |
| 20260505221146 | 56 | 209 | 0.9 | 1.7 | 0.00 | 0.15 | 0.15 | 64 | 1007.7 |
| 20260505220643 | 56 | 176 | 1.7 | 2.6 | 0.00 | 0.15 | 0.15 | 64 | 1007.7 |
| 20260505220141 | 56 | 169 | 0.9 | 1.7 | 0.00 | 0.15 | 0.15 | 65 | 1007.7 |
| 20260505215638 | 56 | 256 | 1.7 | 2.6 | 0.00 | 0.15 | 0.15 | 64 | 1007.7 |
| 20260505215136 | 56 | 187 | 0.9 | 0.9 | 0.00 | 0.15 | 0.15 | 64 | 1007.4 |
| 20260505214634 | 56 | 184 | 0.0 | 0.0 | 0.00 | 0.15 | 0.15 | 66 | 1007.7 |
| 20260505214131 | 56 | 274 | 3.5 | 3.5 | 0.00 | 0.15 | 0.15 | 65 | 1007.7 |
| 20260505213628 | 56 | 177 | 1.7 | 2.6 | 0.00 | 0.15 | 0.15 | 65 | 1007.7 |
| 20260505213125 | 56 | 259 | 3.5 | 3.5 | 0.00 | 0.15 | 0.15 | 66 | 1007.7 |
| 20260505212620 | 56 | 226 | 1.7 | 1.7 | 0.00 | 0.15 | 0.15 | 66 | 1007.7 |
| 20260505212119 | 56 | 270 | 2.6 | 2.6 | 0.00 | 0.15 | 0.15 | 66 | 1007.7 |
| 20260505211615 | 56 | 204 | 0.9 | 1.7 | 0.00 | 0.15 | 0.15 | 66 | 1007.7 |
| 20260505211112 | 56 | 186 | 1.7 | 2.6 | 0.00 | 0.15 | 0.15 | 66 | 1007.7 |
| 20260505210609 | 56 | 276 | 2.6 | 3.5 | 0.00 | 0.15 | 0.15 | 66 | 1007.7 |
| 20260505210106 | 56 | 266 | 2.6 | 3.5 | 0.00 | 0.15 | 0.15 | 67 | 1007.7 |
| 20260505205604 | 56 | 223 | 1.7 | 1.7 | 0.00 | 0.15 | 0.15 | 66 | 1007.7 |
| 20260505205101 | 56 | 246 | 2.6 | 2.6 | 0.00 | 0.15 | 0.15 | 68 | 1007.7 |
| 20260505204558 | 56 | 221 | 1.7 | 1.7 | 0.00 | 0.15 | 0.15 | 68 | 1007.7 |
| 20260505204056 | 57 | 278 | 1.7 | 2.6 | 0.00 | 0.15 | 0.15 | 69 | 1008.1 |
| 20260505203552 | 56 | 247 | 1.7 | 2.6 | 0.00 | 0.15 | 0.15 | 69 | 1007.7 |
| 20260505203049 | 57 | 222 | 1.7 | 1.7 | 0.00 | 0.15 | 0.15 | 69 | 1007.7 |
| 20260505202545 | 57 | 191 | 3.5 | 3.5 | 0.00 | 0.15 | 0.15 | 70 | 1007.7 |
| 20260505202041 | 56 | 215 | 2.6 | 2.6 | 0.00 | 0.15 | 0.15 | 70 | 1008.1 |
| 20260505201538 | 56 | 220 | 1.7 | 2.6 | 0.00 | 0.15 | 0.15 | 69 | 1008.1 |
| 20260505201036 | 56 | 185 | 0.0 | 0.9 | 0.00 | 0.15 | 0.15 | 71 | 1007.7 |
| 20260505200534 | 56 | 253 | 2.6 | 2.6 | 0.00 | 0.15 | 0.15 | 71 | 1008.1 |
| 20260505200030 | 56 | 226 | 1.7 | 1.7 | 0.00 | 0.15 | 0.15 | 70 | 1007.7 |
| 20260505195526 | 56 | 189 | 1.7 | 2.6 | 0.00 | 0.15 | 0.15 | 70 | 1007.7 |
| 20260505195024 | 56 | 190 | 0.9 | 1.7 | 0.00 | 0.15 | 0.15 | 71 | 1007.7 |
| 20260505194521 | 55 | 235 | 2.6 | 2.6 | 0.00 | 0.15 | 0.15 | 71 | 1007.7 |
| 20260505194016 | 55 | 190 | 0.9 | 0.9 | 0.00 | 0.15 | 0.15 | 71 | 1008.1 |
| 20260505193514 | 55 | 236 | 1.7 | 1.7 | 0.00 | 0.15 | 0.15 | 72 | 1008.1 |
| 20260505193011 | 55 | 222 | 1.7 | 1.7 | 0.00 | 0.15 | 0.15 | 71 | 1008.1 |
| 20260505192509 | 55 | 237 | 0.9 | 1.7 | 0.00 | 0.15 | 0.15 | 72 | 1008.1 |
| 20260505192007 | 55 | 230 | 1.7 | 2.6 | 0.00 | 0.15 | 0.15 | 72 | 1008.1 |
| 20260505191505 | 55 | 258 | 0.9 | 1.7 | 0.00 | 0.15 | 0.15 | 72 | 1008.1 |
| 20260505191002 | 55 | 186 | 0.0 | 0.9 | 0.00 | 0.15 | 0.15 | 73 | 1008.4 |
| 20260505190456 | 55 | 188 | 0.9 | 0.9 | 0.00 | 0.15 | 0.15 | 72 | 1008.1 |
| 20260505185952 | 55 | 180 | 0.0 | 0.9 | 0.00 | 0.15 | 0.15 | 72 | 1008.1 |
| 20260505185450 | 54 | 237 | 2.6 | 2.6 | 0.00 | 0.15 | 0.15 | 71 | 1008.4 |
| 20260505184946 | 54 | 285 | 3.5 | 5.2 | 0.00 | 0.15 | 0.15 | 71 | 1008.4 |
| 20260505184443 | 55 | 291 | 5.2 | 7.0 | 0.00 | 0.15 | 0.15 | 72 | 1008.4 |
| 20260505183939 | 55 | 230 | 2.6 | 2.6 | 0.00 | 0.15 | 0.15 | 73 | 1008.1 |
| 20260505183437 | 55 | 260 | 2.6 | 2.6 | 0.00 | 0.15 | 0.15 | 71 | 1008.1 |
| 20260505182933 | 55 | 290 | 5.2 | 7.0 | 0.00 | 0.15 | 0.15 | 71 | 1008.1 |
| 20260505182430 | 55 | 279 | 3.5 | 3.5 | 0.00 | 0.15 | 0.15 | 72 | 1007.7 |
| 20260505181926 | 55 | 268 | 1.7 | 2.6 | 0.00 | 0.15 | 0.15 | 72 | 1008.1 |
| 20260505181424 | 55 | 188 | 0.9 | 0.9 | 0.00 | 0.15 | 0.15 | 72 | 1007.7 |
| 20260505180921 | 55 | 213 | 0.9 | 1.7 | 0.00 | 0.15 | 0.15 | 73 | 1007.7 |
| 20260505180417 | 55 | 227 | 3.5 | 5.2 | 0.00 | 0.15 | 0.15 | 73 | 1007.7 |
| 20260505175914 | 55 | 198 | 0.9 | 0.9 | 0.00 | 0.15 | 0.15 | 75 | 1007.7 |
| 20260505175410 | 54 | 184 | 0.0 | 0.0 | 0.00 | 0.15 | 0.15 | 75 | 1007.7 |
| 20260505174906 | 54 | 200 | 0.9 | 0.9 | 0.00 | 0.15 | 0.15 | 76 | 1007.7 |
| 20260505174404 | 54 | 263 | 0.9 | 2.6 | 0.00 | 0.15 | 0.15 | 76 | 1007.4 |
| 20260505173900 | 54 | 242 | 1.7 | 1.7 | 0.00 | 0.15 | 0.15 | 77 | 1007.7 |
| 20260505173356 | 54 | 192 | 0.9 | 0.9 | 0.00 | 0.15 | 0.15 | 78 | 1007.7 |
| 20260505172853 | 54 | 204 | 1.7 | 1.7 | 0.00 | 0.15 | 0.15 | 79 | 1007.4 |
| 20260505172351 | 53 | 205 | 1.7 | 2.6 | 0.00 | 0.15 | 0.15 | 78 | 1007.4 |
| 20260505171851 | 53 | 184 | 0.0 | 0.9 | 0.00 | 0.15 | 0.15 | 78 | 1007.7 |
| 20260505171348 | 53 | 205 | 1.7 | 3.5 | 0.00 | 0.15 | 0.15 | 77 | 1007.4 |
| 20260505170844 | 54 | 216 | 1.7 | 1.7 | 0.00 | 0.15 | 0.15 | 77 | 1007.4 |
| 20260505170341 | 54 | 184 | 0.9 | 1.7 | 0.00 | 0.15 | 0.15 | 77 | 1007.7 |
| 20260505165836 | 54 | 195 | 2.6 | 3.5 | 0.00 | 0.15 | 0.15 | 77 | 1007.4 |